Temperature
28 27 25 24 24 25 26 27 27 26 25 25 24 25 25 26 26 26 25 25 24 23 23 22 22 22 21 21 20 20 19 19 19 19 18 18 18 17 17 17 17 16 16 16
27 28 27 26 26 26 27 28 28 27 25 25 25 25 25 25 25 25 25 24 24 23 23 22 22 22 21 21 21 21 20 20 19 19 18 18 18 17 17 17 17 16 16 16
26 27 27 26 27 28 28 28 28 26 25 25 24 24 23 23 23 24 23 23 23 23 22 22 22 21 21 21 21 20 20 20 19 19 18 18 18 17 17 17 17 16 16 16
25 25 24 27 27 27 27 27 27 26 25 24 23 22 22 22 22 22 22 22 22 22 22 21 21 21 21 21 20 20 20 19 19 19 18 18 18 17 17 17 17 17 16 16
24 24 24 25 26 26 25 25 26 25 24 24 23 22 21 21 21 20 20 20 20 20 21 20 20 20 20 20 20 19 19 19 19 18 18 18 17 17 17 16 16 16 16 16
23 23 22 23 24 25 25 23 25 25 24 24 24 22 20 19 19 19 18 18 19 19 19 19 19 19 19 19 19 19 18 18 18 18 17 17 17 17 16 16 16 16 15 15
23 23 23 23 23 24 23 22 23 23 23 22 21 20 19 18 18 17 17 17 17 17 18 18 18 18 18 18 17 17 17 17 17 17 17 16 16 16 16 15 15 15 15 15
23 22 21 22 22 22 21 22 22 22 21 20 19 19 18 17 17 16 16 16 16 16 16 17 17 17 17 16 16 16 16 16 16 16 16 16 15 15 15 15 15 15 14 14
20 20 20 21 21 21 22 21 21 21 20 20 19 18 17 17 16 16 15 15 15 15 15 15 15 16 15 15 15 15 16 16 15 15 15 15 14 14 14 14 14 14 14 14
19 19 20 20 21 21 21 21 21 20 20 19 18 17 16 16 15 15 15 14 14 14 14 14 14 14 14 14 14 14 14 14 14 14 14 14 14 14 13 13 13 13 13 13
18 19 19 20 20 21 21 20 20 19 19 18 17 16 16 15 15 14 14 14 13 13 13 13 13 13 13 13 13 13 13 13 13 13 13 13 13 13 13 13 13 13 13 13
18 19 19 19 20 20 20 19 19 18 17 17 16 16 15 14 14 14 13 13 13 13 12 12 12 12 12 12 12 12 12 12 12 13 13 13 13 13 13 12 12 12 12 12
19 19 19 19 19 19 18 18 17 17 16 16 15 15 14 14 13 13 13 13 12 12 12 12 12 12 11 11 11 11 11 12 12 12 12 12 12 12 12 12 12 12 12 12
19 19 18 18 18 18 17 17 16 16 15 15 15 14 14 14 13 13 12 12 12 12 12 12 11 11 11 11 11 11 11 11 11 12 12 12 12 12 12 12 12 12 12 12
18 18 17 17 16 16 16 16 15 15 15 14 14 14 13 13 13 12 12 12 12 12 11 11 11 11 10 10 10 10 11 11 11 11 11 12 12 12 12 12 12 12 12 11
16 16 16 16 16 15 15 15 14 14 14 13 13 13 13 13 12 12 12 12 11 11 11 11 10 10 10 10 10 10 11 11 11 11 11 11 11 11 11 11 11 11 11 11
16 15 15 15 15 15 14 14 14 13 13 13 13 13 12 12 12 12 11 11 11 11 11 10 10 10 10 10 10 10 10 10 11 11 11 11 11 11 11 11 11 10 10 10
15 15 15 14 14 14 13 13 13 13 13 12 12 12 12 11 11 11 11 11 11 10 10 10 10 10 9 9 9 9 10 10 10 10 10 10 10 10 10 10 10 10 9 9
14 14 13 13 13 13 13 13 12 12 12 12 12 12 11 11 11 11 10 10 10 10 10 9 9 9 9 9 9 9 9 9 10 10 10 10 10 9 9 9 9 8 8 8
13 13 13 13 13 13 12 12 12 12 12 11 11 11 11 11 10 10 10 10 10 10 9 9 9 9 8 8 9 8 9 9 9 9 9 9 8 8 8 8 7 7 7 7
13 13 13 13 12 12 12 12 12 12 11 11 11 11 10 10 10 10 10 10 9 9 9 9 8 8 8 8 8 8 8 8 8 8 8 7 7 7 6 6 6 6 6 6
12 12 12 12 12 12 12 12 11 11 11 11 11 10 10 10 10 10 9 9 9 8 8 8 8 7 7 7 7 7 7 7 7 6 6 6 6 6 5 5 5 5 5 5
12 12 12 12 12 12 11 11 11 11 11 10 10 10 10 9 9 9 9 8 8 8 7 7 7 7 6 6 6 6 6 6 5 5 5 5 5 4 4 4 4 4 4 4
11 11 11 11 11 11 11 11 11 10 10 10 10 10 9 9 9 9 8 8 7 7 7 6 6 6 6 5 5 5 5 5 4 4 4 4 4 3 3 3 3 3 3 3
11 11 11 11 11 11 11 10 10 10 10 10 9 9 9 8 8 8 7 7 7 6 6 6 5 5 5 5 4 4 4 4 3 3 3 3 2 2 2 2 2 2 2 2
10 10 10 10 10 10 10 10 10 9 9 9 9 8 8 8 7 7 7 6 6 6 5 5 5 4 4 4 4 3 3 3 3 2 2 2 2 2 2 2 2 2 2 2
11 10 10 10 10 10 10 9 9 9 8 8 8 7 7 7 7 6 6 6 5 5 5 4 4 4 3 3 3 2 2 2 2 2 1 1 1 1 1 1 1 1 1 1
Wind_Speed
13 8 8 10 13 14 14 13 11 7 3 2 4 4 3 4 5 7 7 8 9 9 9 9 9 9 11 12 12 12 12 13 12 12 10 10 10 9 9 10 11 9 9 9
13 12 12 13 15 17 16 13 10 5 2 2 6 6 5 6 5 5 5 5 5 6 8 9 8 8 8 9 10 10 12 12 12 12 12 12 11 10 10 10 9 9 9 9
12 10 10 13 10 10 9 6 5 2 5 8 7 8 7 6 6 6 4 3 4 4 4 6 7 7 7 6 7 8 8 8 9 10 11 11 12 11 11 10 9 9 9 9
10 9 11 6 2 2 2 1 2 6 9 11 9 9 8 9 9 9 8 7 5 3 4 3 3 5 5 5 5 6 7 7 7 8 9 8 8 9 9 8 8 8 8 8
8 9 8 4 2 1 2 3 5 7 8 9 12 12 11 10 11 10 10 10 9 7 5 5 4 3 4 3 3 3 3 3 4 5 6 7 7 7 7 7 7 7 7 8
8 6 6 2 3 3 1 3 5 7 7 6 8 7 8 10 11 12 11 11 11 11 11 10 9 7 6 6 5 3 2 2 2 1 2 4 5 5 4 5 6 6 7 8
9 5 2 1 1 2 2 4 5 8 10 9 10 10 11 12 12 12 12 12 12 12 12 11 10 9 9 8 6 4 4 5 4 3 1 1 1 2 2 4 5 6 6 6
6 5 2 2 2 3 6 7 7 9 13 15 16 15 14 13 12 12 12 12 12 12 12 11 11 10 10 9 7 7 6 5 5 4 2 1 0 1 2 4 4 5 6 6
2 2 5 6 8 8 9 9 8 11 14 15 16 15 14 13 12 12 12 12 12 12 12 12 12 11 10 8 8 7 7 7 6 5 4 3 2 1 1 2 3 4 4 5
2 5 6 7 9 9 9 10 11 13 14 15 16 15 14 12 12 12 12 11 11 11 11 11 11 10 9 8 7 7 7 6 4 3 2 2 2 2 2 2 2 3 3 3
3 3 5 6 8 10 11 12 14 15 16 15 16 15 14 12 11 11 11 10 10 10 10 10 9 9 8 8 7 7 6 5 4 3 2 2 1 1 1 1 0 1 2 3
2 2 4 7 9 12 13 14 16 17 16 15 15 14 14 12 10 10 10 9 9 9 9 9 9 9 8 8 7 7 5 5 4 3 2 2 1 1 1 2 3 5 5 4
6 7 9 11 12 14 16 16 17 16 15 15 14 13 12 11 9 9 9 9 8 8 7 7 7 7 7 7 7 6 6 5 5 5 4 4 3 3 2 4 7 8 9 9
8 10 13 13 14 15 17 17 17 16 14 13 12 11 11 10 9 9 8 7 7 6 6 6 6 6 6 6 6 6 6 4 5 5 5 5 5 5 4 5 3 4 7 10
11 14 15 15 15 15 15 15 15 14 13 12 11 10 10 9 8 7 6 6 6 6 6 7 7 6 6 6 6 6 7 6 5 5 6 7 6 6 6 5 5 5 5 4
14 16 16 15 15 14 14 14 13 12 11 10 9 8 7 7 6 5 5 5 5 5 5 5 5 6 6 6 7 6 6 7 7 7 7 7 6 7 7 6 6 6 6 6
14 13 13 14 13 13 12 11 10 10 9 8 7 6 6 6 6 6 6 5 4 4 4 4 5 7 7 7 8 8 8 8 8 8 7 6 6 7 7 7 8 7 7 7
14 13 13 13 12 12 10 10 9 8 7 6 6 6 6 6 6 6 6 6 4 3 4 5 6 7 7 7 7 8 9 9 8 9 8 7 8 8 8 8 9 9 8 8
15 15 14 13 11 9 8 7 7 6 6 5 5 5 5 5 5 5 6 6 5 4 5 5 6 7 7 8 9 7 10 10 10 9 8 9 9 9 9 9 9 10 10 9
13 12 11 10 9 7 6 5 4 4 3 4 4 4 4 4 4 5 5 4 4 4 5 6 6 7 7 9 10 10 10 10 10 10 9 9 9 9 9 10 10 10 9 9
9 8 8 7 6 5 4 4 3 2 3 3 3 3 4 4 5 5 5 3 4 5 6 6 4 6 8 10 11 10 10 10 10 10 10 9 9 9 10 10 11 10 10 10
6 5 4 4 4 3 3 2 3 3 4 4 4 4 5 5 6 5 3 3 4 6 6 6 6 7 10 11 10 10 9 9 9 9 9 9 9 9 9 10 10 10 10 10
6 5 5 4 3 3 3 2 2 3 3 4 4 4 5 5 5 6 3 3 4 5 5 5 5 7 10 9 8 9 9 9 9 9 9 9 9 9 9 10 10 9 9 10
4 4 3 3 3 3 3 3 3 3 3 4 4 3 4 4 3 4 3 3 3 4 4 3 3 6 9 7 7 7 7 8 9 9 9 9 9 9 9 9 9 9 10 11
3 3 3 3 4 4 4 4 4 3 4 3 4 4 4 4 4 4 4 4 4 4 4 2 2 6 7 7 7 7 7 7 8 8 8 8 9 9 9 9 9 9 9 9
2 3 3 4 4 4 4 4 4 4 5 5 5 5 5 4 4 4 3 3 4 4 4 4 4 4 6 6 7 7 7 7 7 7 8 8 8 8 8 8 10 8 8 8
2 2 1 3 3 4 4 4 4 5 5 5 5 6 5 4 4 4 4 4 4 4 4 4 4 5 5 6 6 6 6 7 7 8 8 7 7 7 8 9 7 7 8 8
Wind_Direction
251 200 179 208 237 255 257 260 265 264 261 208 164 150 115 119 127 138 147 160 165 170 170 169 179 184 183 183 185 188 189 192 194 194 196 198 196 193 193 195 202 201 203 205
250 233 216 215 220 231 241 248 254 231 171 114 106 104 84 75 78 99 122 142 154 161 163 168 181 185 185 188 187 185 188 194 194 191 194 199 197 194 192 196 202 197 202 209
250 250 253 241 236 240 249 256 263 224 129 106 90 87 78 70 65 63 68 100 117 134 147 166 175 174 178 181 185 187 192 198 192 192 197 199 200 197 197 196 201 205 205 210
252 247 248 255 300 285 264 286 75 103 108 108 107 90 68 63 59 52 46 47 61 88 102 118 141 166 167 171 169 175 181 189 187 191 198 198 202 200 199 198 201 208 212 216
244 237 250 284 349 65 159 66 76 99 109 119 123 105 76 62 63 58 50 44 46 52 72 69 71 92 114 130 136 140 154 172 187 196 191 190 198 201 196 195 199 204 211 216
238 230 230 243 344 337 106 94 52 85 99 109 119 104 83 66 61 58 52 46 45 47 51 53 49 60 77 78 69 68 75 87 90 133 189 192 193 196 199 198 204 210 218 220
235 232 212 73 323 264 175 109 66 80 84 90 81 95 99 84 70 62 60 57 53 53 50 45 48 60 63 60 53 46 57 62 61 53 58 95 156 170 188 209 216 226 235 235
233 226 221 10 78 68 96 93 80 87 94 96 97 96 93 86 78 69 64 61 63 60 55 48 49 58 58 50 39 37 49 61 57 52 43 11 178 188 204 218 223 231 241 246
10 104 85 73 89 105 107 105 102 98 101 103 103 100 95 88 80 72 66 61 60 66 62 53 49 53 53 37 32 38 42 45 51 49 39 24 19 354 255 245 248 248 248 255
85 80 78 88 97 94 98 102 99 98 102 103 102 99 92 84 77 71 66 62 59 62 61 56 51 50 49 42 32 33 34 30 32 43 26 35 38 3 338 319 303 304 308 305
107 110 85 76 94 99 99 99 98 95 96 98 99 96 93 85 77 72 68 63 60 60 59 57 51 47 40 34 34 35 32 27 12 11 16 26 12 354 355 18 22 296 319 323
101 112 119 108 99 102 100 98 96 95 92 89 90 92 89 83 78 74 69 63 61 57 54 51 50 45 36 31 27 23 19 10 358 357 0 333 313 302 291 268 227 225 227 239
88 93 104 99 92 96 99 98 96 94 94 92 88 88 87 85 79 73 68 62 58 55 52 50 49 44 35 26 19 14 6 358 349 349 344 334 333 322 303 254 238 245 245 244
88 98 97 93 92 93 97 98 96 92 88 88 88 85 82 78 73 67 59 54 51 46 39 37 37 33 22 17 13 359 342 344 330 331 333 321 311 305 298 293 284 267 246 241
84 95 97 96 95 94 96 96 94 88 83 78 76 72 70 66 61 59 54 47 38 33 31 28 23 19 9 360 356 341 330 330 338 331 314 304 305 306 304 305 307 306 307 281
94 96 99 99 97 95 93 90 88 84 79 74 69 66 62 61 55 48 40 37 29 22 20 14 8 6 357 350 339 320 309 303 304 303 299 303 310 312 312 315 312 309 309 317
104 104 103 99 95 90 87 86 85 84 81 75 68 61 51 41 34 32 22 19 18 8 9 12 11 0 346 342 333 323 320 317 305 299 306 314 317 316 315 311 311 314 316 322
98 99 98 96 91 87 83 81 77 71 64 56 55 47 35 28 21 16 6 356 356 8 10 19 12 346 338 349 340 327 318 316 316 319 323 325 324 317 312 312 316 318 320 319
91 92 91 91 93 93 89 83 76 69 60 50 42 39 34 25 13 359 350 339 343 11 21 25 360 335 344 9 349 323 319 320 323 324 325 324 319 322 324 325 325 324 324 323
91 93 93 91 86 82 81 76 73 69 57 45 36 29 19 10 358 348 340 341 15 19 2 0 344 344 354 2 342 322 319 323 326 328 330 330 331 332 331 329 326 324 325 324
92 93 93 92 86 77 70 59 50 42 39 30 14 358 352 345 334 330 322 340 49 18 346 340 5 9 2 345 323 320 323 329 330 330 331 334 336 336 336 335 333 331 329 330
90 88 86 84 81 68 51 27 22 23 23 2 348 343 338 332 328 327 337 14 41 18 348 355 12 21 358 335 326 328 334 338 338 338 339 339 337 335 333 333 332 332 330 328
66 60 53 43 33 23 4 354 3 356 341 332 327 327 326 327 323 322 337 29 27 7 349 5 20 1 339 328 331 338 342 343 342 341 341 342 340 338 337 336 334 333 331 330
49 37 24 4 347 334 333 345 346 331 318 317 321 333 329 319 328 345 9 67 47 4 352 31 10 337 321 328 339 347 353 353 352 349 345 343 342 341 340 337 336 336 334 333
11 343 337 339 324 326 337 327 318 321 317 316 324 337 337 341 342 351 352 5 14 344 346 15 344 327 332 347 356 359 360 360 353 344 342 343 344 343 342 340 339 336 333 332
328 324 348 328 327 321 321 330 336 340 334 338 345 351 347 344 343 338 336 351 360 353 350 359 356 347 355 1 7 4 358 353 353 353 350 346 345 343 339 337 335 335 333 336
291 299 287 304 335 345 346 345 340 338 341 345 341 335 333 343 349 348 352 1 357 357 4 5 9 13 8 10 12 7 4 2 359 354 350 349 348 342 340 338 338 339 339 344
Height
1430 1434 1443 1452 1452 1449 1449 1445 1448 1449 1451 1452 1450 1452 1452 1453 1455 1457 1461 1464 1467 1471 1475 1478 1482 1485 1489 1492 1496 1499 1502 1504 1507 1509 1513 1515 1517 1519 1520 1522 1524 1525 1527 1529
1433 1430 1434 1441 1441 1440 1439 1435 1437 1441 1450 1447 1448 1452 1454 1455 1456 1458 1461 1464 1467 1470 1472 1475 1478 1481 1485 1488 1492 1495 1498 1500 1503 1505 1508 1510 1512 1514 1516 1517 1519 1521 1522 1524
1438 1430 1434 1440 1432 1431 1431 1430 1434 1443 1447 1447 1451 1454 1457 1458 1458 1460 1462 1464 1466 1468 1471 1473 1476 1479 1482 1485 1488 1491 1494 1497 1500 1501 1503 1505 1507 1509 1511 1512 1515 1517 1518 1520
1439 1440 1456 1435 1424 1426 1431 1431 1432 1437 1443 1448 1453 1457 1459 1460 1461 1463 1464 1465 1466 1468 1470 1473 1475 1477 1480 1482 1485 1487 1490 1493 1495 1497 1499 1501 1504 1505 1507 1508 1510 1512 1513 1515
1442 1446 1446 1436 1428 1431 1437 1440 1436 1440 1444 1448 1453 1458 1463 1464 1465 1466 1467 1467 1468 1469 1470 1472 1474 1476 1478 1480 1483 1485 1486 1488 1491 1493 1496 1497 1499 1500 1502 1504 1504 1506 1508 1510
1440 1448 1456 1445 1434 1432 1435 1447 1442 1443 1445 1448 1451 1459 1467 1468 1469 1469 1469 1469 1470 1470 1471 1472 1474 1476 1478 1480 1482 1483 1485 1486 1488 1490 1492 1494 1495 1497 1499 1500 1501 1502 1504 1506
1438 1444 1444 1438 1435 1435 1449 1455 1447 1447 1448 1451 1456 1462 1469 1471 1472 1472 1472 1472 1472 1473 1473 1474 1475 1477 1478 1479 1481 1483 1484 1485 1486 1488 1489 1490 1491 1493 1495 1496 1497 1499 1500 1502
1437 1447 1453 1439 1438 1442 1448 1447 1449 1451 1453 1457 1461 1466 1470 1473 1475 1476 1476 1476 1476 1475 1476 1477 1477 1478 1480 1481 1482 1483 1483 1484 1485 1486 1487 1488 1489 1490 1491 1493 1494 1495 1496 1498
1445 1449 1444 1441 1442 1446 1447 1450 1453 1455 1458 1462 1466 1470 1474 1476 1478 1479 1480 1480 1480 1479 1479 1480 1480 1481 1482 1482 1483 1483 1483 1483 1483 1484 1485 1487 1487 1488 1489 1490 1491 1492 1493 1493
1448 1447 1446 1446 1446 1447 1450 1453 1456 1459 1463 1466 1469 1473 1477 1479 1481 1482 1483 1483 1484 1483 1483 1484 1484 1484 1484 1484 1484 1484 1483 1483 1483 1484 1485 1486 1487 1487 1488 1488 1489 1489 1489 1490
1449 1448 1448 1449 1450 1452 1455 1458 1461 1464 1467 1470 1473 1477 1480 1482 1484 1485 1486 1487 1487 1487 1487 1487 1487 1487 1487 1486 1486 1485 1485 1485 1485 1485 1485 1485 1485 1485 1486 1486 1486 1487 1486 1487
1451 1450 1452 1453 1454 1456 1459 1463 1466 1469 1472 1475 1478 1481 1483 1486 1488 1489 1490 1490 1490 1490 1491 1491 1490 1489 1489 1488 1488 1487 1486 1486 1486 1486 1486 1486 1485 1484 1484 1484 1484 1484 1483 1483
1450 1451 1453 1456 1457 1460 1463 1467 1471 1474 1477 1480 1483 1485 1487 1489 1491 1492 1492 1493 1493 1493 1493 1493 1493 1492 1491 1491 1490 1489 1488 1488 1487 1487 1487 1486 1485 1484 1483 1483 1482 1482 1481 1479
1454 1455 1457 1460 1463 1466 1469 1472 1476 1479 1482 1484 1487 1489 1490 1492 1493 1494 1495 1495 1495 1495 1496 1495 1495 1494 1493 1493 1492 1491 1490 1489 1488 1487 1486 1485 1484 1483 1482 1481 1480 1479 1478 1476
1458 1460 1463 1466 1469 1472 1475 1478 1481 1483 1486 1488 1490 1492 1493 1495 1495 1496 1497 1497 1497 1497 1497 1497 1496 1496 1495 1494 1493 1491 1490 1489 1488 1487 1485 1484 1483 1482 1481 1479 1478 1476 1475 1473
1464 1466 1469 1472 1475 1478 1480 1483 1485 1488 1490 1491 1493 1495 1496 1497 1497 1498 1498 1498 1498 1498 1497 1497 1497 1496 1495 1494 1493 1491 1490 1489 1487 1485 1484 1483 1481 1480 1478 1477 1475 1473 1472 1470
1469 1472 1475 1477 1480 1482 1485 1487 1489 1492 1493 1494 1496 1497 1497 1498 1498 1499 1499 1498 1498 1498 1498 1497 1496 1495 1494 1493 1492 1491 1489 1487 1485 1484 1482 1480 1479 1477 1475 1474 1472 1470 1468 1466
1474 1477 1479 1482 1484 1487 1489 1491 1493 1494 1495 1496 1497 1498 1498 1499 1499 1499 1499 1498 1498 1498 1497 1496 1495 1494 1493 1492 1490 1488 1487 1485 1484 1482 1480 1478 1475 1474 1472 1470 1468 1466 1463 1461
1479 1481 1484 1486 1488 1490 1492 1494 1496 1497 1498 1498 1499 1499 1499 1500 1500 1499 1499 1498 1497 1497 1496 1495 1494 1493 1492 1490 1488 1486 1485 1483 1481 1479 1476 1474 1472 1470 1468 1466 1463 1461 1459 1457
1484 1486 1488 1490 1492 1493 1495 1496 1497 1499 1499 1500 1500 1500 1500 1500 1500 1499 1498 1497 1496 1496 1495 1494 1492 1491 1489 1487 1485 1484 1482 1480 1478 1476 1473 1471 1469 1466 1464 1462 1460 1457 1454 1452
1489 1490 1492 1493 1495 1496 1497 1498 1499 1499 1500 1500 1500 1500 1500 1500 1499 1498 1497 1496 1495 1494 1493 1492 1490 1488 1486 1484 1483 1481 1479 1477 1475 1473 1470 1468 1465 1463 1461 1458 1456 1453 1450 1447
1492 1493 1495 1496 1497 1498 1499 1499 1499 1500 1500 1500 1500 1499 1499 1498 1498 1497 1496 1495 1493 1492 1491 1490 1488 1485 1483 1482 1480 1479 1476 1474 1472 1470 1467 1465 1462 1460 1457 1454 1452 1449 1446 1443
1495 1496 1497 1497 1498 1498 1499 1499 1499 1499 1499 1499 1499 1498 1497 1497 1496 1495 1494 1492 1491 1489 1488 1487 1485 1483 1481 1479 1477 1476 1473 1471 1469 1467 1464 1462 1459 1457 1454 1451 1448 1445 1442 1438
1497 1498 1498 1498 1498 1498 1498 1498 1498 1498 1498 1497 1497 1496 1495 1494 1493 1492 1491 1489 1488 1487 1486 1484 1482 1480 1478 1477 1475 1473 1471 1468 1466 1464 1462 1459 1456 1454 1451 1448 1445 1441 1438 1435
1498 1498 1498 1498 1498 1497 1497 1497 1497 1496 1496 1495 1495 1494 1493 1492 1491 1490 1489 1487 1486 1484 1483 1481 1479 1478 1476 1475 1473 1471 1468 1466 1464 1462 1459 1457 1454 1451 1448 1445 1442 1438 1435 1432
1498 1498 1497 1497 1497 1496 1496 1496 1495 1495 1494 1493 1492 1492 1491 1489 1488 1487 1486 1485 1483 1482 1481 1479 1478 1476 1474 1473 1471 1469 1467 1464 1462 1460 1457 1454 1451 1448 1445 1442 1439 1436 1433 1430
1496 1496 1496 1496 1496 1495 1495 1494 1494 1493 1492 1491 1490 1490 1488 1487 1486 1485 1483 1482 1481 1480 1478 1477 1476 1474 1472 1471 1469 1467 1465 1463 1461 1458 1455 1452 1450 1447 1444 1441 1438 1435 1431 1428